Weather History for Farmington, MO

Change the Weather History Date:

Monday, August 4, 2014

  Actual Average Record
Temperature  
Mean Temperature 72 °F -  
Max Temperature 87 °F 83 °F 96 °F (2002)
Min Temperature 57 °F 63 °F 57 °F (2014)
Cooling Degree Days 7    
Growing Degree Days 22 (Base 50)    
Moisture  
Dew Point 59 °F    
Average Humidity 63    
Maximum Humidity 94    
Minimum Humidity 33    
Precipitation  
Precipitation 0.00 in - - ()
Sea Level Pressure  
Sea Level Pressure 30.12 in    
Wind  
Wind Speed 1 mph (SE)    
Max Wind Speed 8 mph    
Max Gust Speed -    
Visibility 9 miles    
Events      
Averages and records for this station are not official NWS values.
T = Trace of Precipitation, MM = Missing Value Source: NWS Daily Summary

Daily Weather History Graph

Daily Weather History Graph

Search for Another Location

Airport:

Trip Planner

Search our weather history database for the weather conditions in past years. The results will help you decide how hot, cold, wet, or windy it might be!

Date:

Astronomy

Aug. 04, 2014 Rise Set
Actual Time 6:07 AM CDT 8:07 PM CDT
Civil Twilight 5:38 AM CDT 8:35 PM CDT
Nautical Twilight 5:03 AM CDT 9:11 PM CDT
Astronomical Twilight 4:25 AM CDT 9:48 PM CDT
Moon 2:19 PM CDT (8/4) 12:13 AM CDT (8/4)
Length of Visible Light 14h 57m
Length of Day
13h 59m
First Quarter, 57% of the Moon is Illuminated
Aug 4
First Quarter
Aug 10
Full
Aug 17
Last Quarter
Aug 25
New
Sep 2
First Quarter

Hourly Weather History & Observations

Time (CDT) Temp. Heat Index Dew Point Humidity Pressure Visibility Wind Dir Wind Speed Gust Speed Precip Events Conditions
12:15 AM 62.6 °F - 60.8 °F 94% 30.15 in 7.0 mi Calm Calm - N/A   Scattered Clouds
12:35 AM 62.6 °F - 60.8 °F 94% 30.15 in 7.0 mi Calm Calm - N/A   Mostly Cloudy
12:55 AM 64.4 °F - 60.8 °F 88% 30.16 in 8.0 mi Calm Calm - N/A   Overcast
1:15 AM 64.4 °F - 60.8 °F 88% 30.15 in 10.0 mi Calm Calm - N/A   Mostly Cloudy
1:35 AM 64.4 °F - 60.8 °F 88% 30.15 in 9.0 mi Calm Calm - N/A   Mostly Cloudy
1:55 AM 64.4 °F - 60.8 °F 88% 30.14 in 8.0 mi Calm Calm - N/A   Mostly Cloudy
2:15 AM 64.4 °F - 60.8 °F 88% 30.14 in 9.0 mi Calm Calm - N/A   Mostly Cloudy
2:35 AM 64.4 °F - 60.8 °F 88% 30.14 in 10.0 mi Calm Calm - N/A   Mostly Cloudy
2:55 AM 64.4 °F - 60.8 °F 88% 30.14 in 10.0 mi Calm Calm - N/A   Clear
3:15 AM 62.6 °F - 59.0 °F 88% 30.13 in 7.0 mi Calm Calm - N/A   Clear
3:35 AM 62.6 °F - 59.0 °F 88% 30.13 in 7.0 mi Calm Calm - N/A   Clear
3:55 AM 62.6 °F - 57.2 °F 82% 30.13 in 8.0 mi Calm Calm - N/A   Clear
4:15 AM 62.6 °F - 59.0 °F 88% 30.13 in 5.0 mi Calm Calm - N/A   Clear
4:35 AM 60.8 °F - 57.2 °F 88% 30.13 in 5.0 mi Calm Calm - N/A   Clear
4:55 AM 59.0 °F - 57.2 °F 94% 30.14 in 3.0 mi Calm Calm - N/A   Clear
5:15 AM 60.8 °F - 57.2 °F 88% 30.14 in 5.0 mi Calm Calm - N/A   Clear
5:35 AM 59.0 °F - 55.4 °F 88% 30.14 in 4.0 mi Calm Calm - N/A   Clear
5:55 AM 59.0 °F - 57.2 °F 94% 30.14 in 3.0 mi Calm Calm - N/A   Clear
6:15 AM 57.2 °F - 55.4 °F 94% 30.14 in 3.0 mi Calm Calm - N/A   Clear
6:35 AM 59.0 °F - 57.2 °F 94% 30.15 in 4.0 mi Calm Calm - N/A   Clear
6:55 AM 59.0 °F - 57.2 °F 94% 30.16 in 3.0 mi Calm Calm - N/A   Clear
7:15 AM 60.8 °F - 57.2 °F 88% 30.16 in 5.0 mi Calm Calm - N/A   Clear
7:35 AM 62.6 °F - 59.0 °F 88% 30.16 in 5.0 mi Calm Calm - N/A   Clear
7:55 AM 64.4 °F - 60.8 °F 88% 30.17 in 5.0 mi Calm Calm - N/A   Clear
8:15 AM 64.4 °F - 62.6 °F 94% 30.17 in 8.0 mi Calm Calm - N/A   Clear
8:35 AM 68.0 °F - 62.6 °F 83% 30.17 in 7.0 mi Calm Calm - N/A   Clear
8:55 AM 71.6 °F - 62.6 °F 73% 30.17 in 8.0 mi Calm Calm - N/A   Clear
9:15 AM 73.4 °F - 62.6 °F 69% 30.17 in 9.0 mi South 3.5 mph - N/A   Clear
9:35 AM 75.2 °F - 62.6 °F 65% 30.17 in 10.0 mi South 3.5 mph - N/A   Clear
9:55 AM 78.8 °F - 60.8 °F 54% 30.17 in 10.0 mi Calm Calm - N/A   Clear
10:15 AM 78.8 °F - 59.0 °F 51% 30.16 in 10.0 mi Calm Calm - N/A   Clear
10:35 AM 78.8 °F - 60.8 °F 54% 30.16 in 10.0 mi Calm Calm - N/A   Clear
10:55 AM 80.6 °F 81.5 °F 60.8 °F 51% 30.16 in 10.0 mi WNW 3.5 mph - N/A   Clear
11:15 AM 80.6 °F 80.8 °F 57.2 °F 45% 30.17 in 10.0 mi Calm Calm - N/A   Clear
11:35 AM 82.4 °F 82.5 °F 59.0 °F 45% 30.16 in 10.0 mi Calm Calm - N/A   Clear
11:55 AM 82.4 °F 82.5 °F 59.0 °F 45% 30.16 in 10.0 mi Calm Calm - N/A   Clear
12:15 PM 82.4 °F 82.9 °F 60.8 °F 48% 30.15 in 10.0 mi ENE 4.6 mph - N/A   Clear
12:35 PM 84.2 °F 84.4 °F 60.8 °F 45% 30.15 in 10.0 mi Calm Calm - N/A   Clear
12:55 PM 82.4 °F 82.5 °F 59.0 °F 45% 30.14 in 10.0 mi Calm Calm - N/A   Clear
1:15 PM 84.2 °F 84.4 °F 60.8 °F 45% 30.13 in 10.0 mi NNE 4.6 mph - N/A   Clear
1:35 PM 84.2 °F 83.8 °F 59.0 °F 42% 30.13 in 10.0 mi Calm Calm - N/A   Clear
1:55 PM 84.2 °F 84.4 °F 60.8 °F 45% 30.12 in 10.0 mi Calm Calm - N/A   Clear
2:15 PM 86.0 °F 84.9 °F 57.2 °F 37% 30.11 in 10.0 mi ENE 4.6 mph - N/A   Clear
2:35 PM 87.8 °F 87.1 °F 59.0 °F 38% 30.11 in 10.0 mi NNE 4.6 mph - N/A   Partly Cloudy
2:55 PM 86.0 °F 85.4 °F 59.0 °F 40% 30.10 in 10.0 mi East 6.9 mph - N/A   Mostly Cloudy
3:15 PM 86.0 °F 84.9 °F 57.2 °F 37% 30.09 in 10.0 mi Calm Calm - N/A   Mostly Cloudy
3:35 PM 87.8 °F 87.1 °F 59.0 °F 38% 30.09 in 10.0 mi South 4.6 mph - N/A   Partly Cloudy
3:55 PM 87.8 °F 86.5 °F 57.2 °F 35% 30.08 in 10.0 mi East 4.6 mph - N/A   Clear
4:15 PM 87.8 °F 86.5 °F 57.2 °F 35% 30.08 in 10.0 mi Calm Calm - N/A   Clear
4:35 PM 87.8 °F 86.5 °F 57.2 °F 35% 30.07 in 10.0 mi SE 6.9 mph - N/A   Clear
4:55 PM 87.8 °F 86.1 °F 55.4 °F 33% 30.07 in 10.0 mi East 4.6 mph - N/A   Clear
5:15 PM 87.8 °F 86.1 °F 55.4 °F 33% 30.07 in 10.0 mi ESE 5.8 mph - N/A   Clear
5:35 PM 87.8 °F 86.5 °F 57.2 °F 35% 30.07 in 10.0 mi ESE 4.6 mph - N/A   Scattered Clouds
5:55 PM 87.8 °F 86.5 °F 57.2 °F 35% 30.06 in 10.0 mi ESE 8.1 mph - N/A   Partly Cloudy
6:15 PM 86.0 °F 84.9 °F 57.2 °F 37% 30.06 in 10.0 mi SE 4.6 mph - N/A   Clear
6:35 PM 86.0 °F 84.9 °F 57.2 °F 37% 30.06 in 10.0 mi ESE 5.8 mph - N/A   Clear
6:55 PM 84.2 °F 83.8 °F 59.0 °F 42% 30.06 in 10.0 mi SSE 5.8 mph - N/A   Clear
7:15 PM 82.4 °F 82.5 °F 59.0 °F 45% 30.06 in 10.0 mi SSE 4.6 mph - N/A   Mostly Cloudy
7:35 PM 82.4 °F 82.9 °F 60.8 °F 48% 30.06 in 10.0 mi SSE 5.8 mph - N/A   Overcast
7:55 PM 80.6 °F 81.1 °F 59.0 °F 48% 30.07 in 10.0 mi SSE 6.9 mph - N/A   Overcast
8:15 PM 80.6 °F 81.1 °F 59.0 °F 48% 30.07 in 10.0 mi SSE 6.9 mph - N/A   Overcast
8:35 PM 78.8 °F - 57.2 °F 47% 30.08 in 10.0 mi SSE 6.9 mph - N/A   Mostly Cloudy
8:55 PM 77.0 °F - 59.0 °F 54% 30.08 in 10.0 mi SSE 5.8 mph - N/A   Overcast
9:15 PM 75.2 °F - 57.2 °F 53% 30.09 in 10.0 mi South 3.5 mph - N/A   Scattered Clouds
9:35 PM 75.2 °F - 57.2 °F 53% 30.10 in 10.0 mi Calm Calm - N/A   Clear
9:55 PM 75.2 °F - 57.2 °F 53% 30.11 in 10.0 mi Calm Calm - N/A   Clear
10:35 PM 71.6 °F - 59.0 °F 64% 30.10 in 10.0 mi South 4.6 mph - N/A   Clear
10:55 PM 71.6 °F - 59.0 °F 64% 30.09 in 10.0 mi South 3.5 mph - N/A   Clear
11:15 PM 69.8 °F - 59.0 °F 68% 30.09 in 10.0 mi Calm Calm - N/A   Clear
11:35 PM 71.6 °F - 59.0 °F 64% 30.08 in 9.0 mi South 3.5 mph - N/A   Clear
11:55 PM 69.8 °F - 59.0 °F 68% 30.08 in 10.0 mi South 3.5 mph - N/A   Clear